N2IVN Weather Reports


Display with metric or nautical units.
time (UTC)temp
F
wind
direction
speed
MPH
gust
MPH
rain 1hr
in
rain 24hr
in
rain mn
in
humidity
%
barometer
mb
20260504005503 50 225 0.0 0.0 0.00 0.00 0.00 51 1013.6
20260504005004 51 225 0.0 0.0 0.00 0.00 0.00 50 1013.6
20260504004005 51 225 0.0 0.0 0.00 0.00 0.00 50 1013.6
20260504003504 51 225 0.0 0.0 0.00 0.00 0.00 49 1013.3
20260504002504 51 270 0.0 0.0 0.00 0.00 0.00 48 1013.1
20260504002005 52 270 0.0 0.0 0.00 0.00 0.00 48 1013.2
20260504001504 52 270 0.0 0.0 0.00 0.00 0.00 46 1013.1
20260504001003 53 270 0.0 0.0 0.00 0.00 0.00 46 1013.0
20260504000505 53 270 0.0 0.0 0.00 0.00 0.00 45 1013.0
20260503235505 54 270 0.0 0.0 0.00 0.00 0.00 44 1013.0
20260503235006 55 248 0.0 0.0 0.00 0.00 0.00 44 1013.0
20260503234506 55 248 0.0 0.0 0.00 0.00 0.00 44 1013.0
20260503233506 56 248 0.0 0.0 0.00 0.00 0.00 43 1012.9
20260503233008 56 248 0.0 0.0 0.00 0.00 0.00 43 1013.0
20260503232509 57 248 0.0 0.0 0.00 0.00 0.00 42 1012.9
20260503232005 57 161 0.0 0.0 0.00 0.00 0.00 42 1012.9
20260503231505 57 257 0.0 0.0 0.00 0.00 0.00 42 1012.9
20260503231005 57 248 0.0 0.0 0.00 0.00 0.00 42 1012.7
20260503230505 58 225 0.0 0.0 0.00 0.00 0.00 42 1012.8
20260503230006 58 225 0.0 0.0 0.00 0.00 0.00 42 1012.7
20260503225505 58 225 0.0 0.0 0.00 0.00 0.00 41 1012.7
20260503225005 58 225 0.0 12.0 0.00 0.00 0.00 41 1012.7
20260503224506 58 267 0.0 12.0 0.00 0.00 0.00 41 1012.8
20260503224005 58 252 0.0 5.0 0.00 0.00 0.00 41 1012.8
20260503223506 59 269 0.0 0.0 0.00 0.00 0.00 41 1012.8
20260503222505 59 270 1.0 3.0 0.00 0.00 0.00 41 1012.8
20260503221006 59 263 1.0 8.0 0.00 0.00 0.00 41 1012.7
20260503220505 59 287 0.0 0.0 0.00 0.00 0.00 40 1012.7
20260503215505 60 287 0.0 6.0 0.00 0.00 0.00 40 1012.7
20260503215005 60 210 1.0 6.0 0.00 0.00 0.00 40 1012.8
20260503214505 60 325 1.0 7.0 0.00 0.00 0.00 40 1012.8
20260503214005 60 339 0.0 6.0 0.00 0.00 0.00 41 1012.8
20260503213506 60 256 1.0 7.0 0.00 0.00 0.00 40 1012.6
20260503212505 60 311 1.0 8.0 0.00 0.00 0.00 40 1012.7
20260503212006 60 305 0.0 3.0 0.00 0.00 0.00 40 1012.6
20260503211505 60 309 1.0 13.0 0.00 0.00 0.00 39 1012.7
20260503211006 60 316 5.0 12.0 0.00 0.00 0.00 39 1012.7
20260503210505 60 315 0.0 9.0 0.00 0.00 0.00 39 1012.6
20260503210005 61 270 1.0 15.0 0.00 0.00 0.00 39 1012.8
20260503205506 61 310 2.0 12.0 0.00 0.00 0.00 38 1012.7
20260503205005 62 293 1.0 6.0 0.00 0.00 0.00 39 1012.8
20260503204005 62 315 1.0 6.0 0.00 0.00 0.00 39 1012.8
20260503203505 62 315 4.0 13.0 0.00 0.00 0.00 38 1012.8
20260503203005 62 286 2.0 6.0 0.00 0.00 0.00 38 1012.9
20260503202505 62 259 3.0 15.0 0.00 0.00 0.00 38 1012.8
20260503202005 62 0 2.0 8.0 0.00 0.00 0.00 38 1012.7
20260503201505 62 287 1.0 8.0 0.00 0.00 0.00 38 1012.6
20260503201005 62 291 0.0 3.0 0.00 0.00 0.00 38 1012.9
20260503200505 62 282 0.0 6.0 0.00 0.00 0.00 38 1013.0
20260503200005 63 315 0.0 7.0 0.00 0.00 0.00 38 1012.9
20260503195505 63 271 1.0 12.0 0.00 0.00 0.00 37 1012.9
20260503195005 63 309 2.0 10.0 0.00 0.00 0.00 37 1012.9
20260503194505 64 335 5.0 16.0 0.00 0.00 0.00 35 1012.8
20260503194004 64 338 4.0 13.0 0.00 0.00 0.00 35 1012.8
20260503193005 65 270 2.0 6.0 0.00 0.00 0.00 35 1012.8
20260503192505 66 326 2.0 10.0 0.00 0.00 0.00 34 1013.0
20260503192005 67 282 1.0 7.0 0.00 0.00 0.00 34 1013.1
20260503191505 68 251 0.0 9.0 0.00 0.00 0.00 34 1013.2
20260503191005 68 307 1.0 12.0 0.00 0.00 0.00 34 1013.1
20260503190005 70 292 0.0 0.0 0.00 0.00 0.00 33 1013.1
20260503185505 71 306 1.0 12.0 0.00 0.00 0.00 32 1013.4
20260503185005 72 308 2.0 8.0 0.00 0.00 0.00 32 1013.5
20260503184505 73 275 1.0 5.0 0.00 0.00 0.00 32 1013.4
20260503184005 74 325 0.0 7.0 0.00 0.00 0.00 32 1013.5
20260503183505 74 252 1.0 6.0 0.00 0.00 0.00 32 1013.5
20260503183005 73 288 2.0 7.0 0.00 0.00 0.00 34 1013.6
20260503182506 72 279 0.0 0.0 0.00 0.00 0.00 35 1013.5
20260503182006 71 315 0.0 7.0 0.00 0.00 0.00 35 1013.5
20260503181505 72 326 2.0 9.0 0.00 0.00 0.00 34 1013.5
20260503181005 72 302 5.0 9.0 0.00 0.00 0.00 35 1013.5
20260503180505 70 258 2.0 6.0 0.00 0.00 0.00 36 1013.6
20260503180005 69 357 0.0 16.0 0.00 0.00 0.00 36 1013.5
20260503175505 70 338 6.0 18.0 0.00 0.00 0.00 35 1013.5
20260503175005 71 301 2.0 13.0 0.00 0.00 0.00 35 1013.5
20260503174505 71 298 0.0 3.0 0.00 0.00 0.00 36 1013.6
20260503173505 70 284 2.0 8.0 0.00 0.00 0.00 36 1013.6
20260503173006 71 289 0.0 3.0 0.00 0.00 0.00 36 1013.6
20260503172505 72 209 0.0 6.0 0.00 0.00 0.00 36 1013.6
20260503172006 71 302 1.0 7.0 0.00 0.00 0.00 37 1013.5
20260503171505 70 340 0.0 0.0 0.00 0.00 0.00 37 1013.6
20260503150505 63 338 0.0 5.0 0.00 0.00 0.00 43 1014.0
20260503131005 52 349 1.0 8.0 0.00 0.00 0.00 63 1013.8
20260503130505 52 315 0.0 0.0 0.00 0.00 0.00 63 1013.6
20260503110504 45 0 0.0 0.0 0.00 0.00 0.00 77 1012.8
20260503090505 42 338 0.0 0.0 0.00 0.00 0.00 79 1011.4
20260503081505 41 338 0.0 0.0 0.00 0.00 0.00 77 1010.8
20260503081004 42 338 0.0 0.0 0.00 0.00 0.00 77 1010.6
20260503080504 42 338 0.0 0.0 0.00 0.00 0.00 77 1010.5
20260503072505 42 338 0.0 0.0 0.00 0.00 0.00 75 1010.6
20260503072004 42 338 0.0 0.0 0.00 0.00 0.00 75 1010.5
20260503071505 42 338 0.0 0.0 0.00 0.00 0.00 75 1010.5
20260503071004 42 338 0.0 0.0 0.00 0.00 0.00 73 1010.4
20260503070506 42 338 0.0 0.0 0.00 0.00 0.00 73 1010.4
20260503055004 46 338 0.0 0.0 0.00 0.00 0.00 67 1010.7
20260503054504 46 338 0.0 0.0 0.00 0.00 0.00 67 1010.7
20260503054004 46 338 0.0 0.0 0.00 0.00 0.00 67 1010.9
20260503053503 46 338 0.0 0.0 0.00 0.00 0.00 67 1010.8
20260503053004 46 338 0.0 0.0 0.00 0.00 0.00 67 1010.9
20260503052504 46 338 0.0 0.0 0.00 0.00 0.00 67 1010.9
20260503052004 46 338 0.0 0.0 0.00 0.00 0.00 67 1011.1
20260503051504 46 0 0.0 0.0 0.00 0.00 0.00 66 1011.1
20260503051004 47 0 0.0 0.0 0.00 0.00 0.00 64 1011.1
20260503050504 47 0 0.0 0.0 0.00 0.00 0.00 64 1011.1
20260503050005 47 0 0.0 0.0 0.00 0.00 0.00 64 1011.1
20260503045506 47 0 0.0 0.0 0.00 0.00 0.00 64 1011.2
20260503045005 47 0 0.0 0.0 0.00 0.00 0.00 64 1011.2
20260503044504 47 0 0.0 0.0 0.00 0.00 0.00 64 1011.2
20260503044004 47 0 0.0 0.0 0.00 0.00 0.00 63 1011.3
20260503043505 47 0 0.0 0.0 0.00 0.00 0.00 63 1011.4
20260503043004 47 0 0.0 0.0 0.00 0.00 0.00 63 1011.4
20260503042504 48 0 0.0 0.0 0.00 0.00 0.00 62 1011.5
20260503041504 48 0 0.0 0.0 0.00 0.00 0.00 61 1011.4
20260503041005 48 0 0.0 0.0 0.00 0.00 0.00 61 1011.5
20260503040505 49 0 0.0 0.0 0.00 0.00 0.00 61 1011.4
20260503040005 49 0 0.0 0.0 0.00 0.00 0.00 60 1011.5
20260503035004 49 0 0.0 0.0 0.00 0.00 0.00 60 1011.6
20260503034504 49 0 0.0 0.0 0.00 0.00 0.00 59 1011.7
20260503034004 50 0 0.0 0.0 0.00 0.00 0.00 59 1011.7
20260503033505 50 0 0.0 0.0 0.00 0.00 0.00 59 1011.7
20260503033005 50 0 0.0 0.0 0.00 0.00 0.00 59 1011.5
20260503032504 50 0 0.0 0.0 0.00 0.00 0.00 59 1011.4
20260503032004 50 0 0.0 0.0 0.00 0.00 0.00 59 1011.4
20260503031504 50 0 0.0 0.0 0.00 0.00 0.00 59 1011.3
20260503031005 50 0 0.0 0.0 0.00 0.00 0.00 59 1011.3
20260503030004 51 0 0.0 0.0 0.00 0.00 0.00 59 1011.5
20260503025504 51 0 0.0 0.0 0.00 0.00 0.00 58 1011.4
20260503025003 51 0 0.0 0.0 0.00 0.00 0.00 59 1011.6
20260503023504 51 0 0.0 0.0 0.00 0.00 0.00 58 1011.6
20260503023004 51 0 0.0 0.0 0.00 0.00 0.00 58 1011.7
20260503022504 51 0 0.0 0.0 0.00 0.00 0.00 57 1011.4
20260503021505 51 0 0.0 0.0 0.00 0.00 0.00 57 1011.5
20260503021005 51 0 0.0 0.0 0.00 0.00 0.00 57 1011.5
20260503020504 51 0 0.0 0.0 0.00 0.00 0.00 56 1011.6
20260503020004 51 0 0.0 0.0 0.00 0.00 0.00 56 1011.5
20260503015504 52 0 0.0 0.0 0.00 0.00 0.00 56 1011.4
20260503014503 52 0 0.0 0.0 0.00 0.00 0.00 56 1011.6
20260503014004 52 0 0.0 0.0 0.00 0.00 0.00 56 1011.7
20260503013504 52 0 0.0 0.0 0.00 0.00 0.00 56 1011.6
20260503013004 52 0 0.0 0.0 0.00 0.00 0.00 56 1011.5
20260503012504 52 0 0.0 0.0 0.00 0.00 0.00 56 1011.4
20260503012003 52 0 0.0 0.0 0.00 0.00 0.00 56 1011.3
20260503010505 52 0 0.0 0.0 0.00 0.00 0.00 56 1011.2
20260503010004 52 0 0.0 0.0 0.00 0.00 0.00 56 1011.0